Bennington, VT

5:01 PM EDT on September 22, 2017 (GMT -0400)
Morse State

Weather History for KDDH - February, 2012

Change the Weather History Date:

Tuesday, February 21, 2012

  Actual Average Record
Temperature  
Mean Temperature 28 °F 26 °F  
Max Temperature 42 °F 36 °F 49 °F (2016)
Min Temperature 14 °F 17 °F -14 °F (2015)
Degree Days  
Heating Degree Days 37 39  
Month to date heating degree days 681 857  
Since 1 July heating degree days 3414 4988  
Cooling Degree Days 0 0  
Month to date cooling degree days 0 0  
Year to date cooling degree days 0 0  
Moisture  
Dew Point 18 °F    
Average Humidity 59    
Maximum Humidity 88    
Minimum Humidity 30    
Precipitation  
Precipitation 0.00 in 0.08 in 1.09 in (2014)
Month to date precipitation 0.17 1.57  
Year to date precipitation 1.90 4.32  
Sea Level Pressure  
Sea Level Pressure 30.09 in    
Wind  
Wind Speed 5 mph (South)    
Max Wind Speed 18 mph    
Max Gust Speed 26 mph    
Visibility 10 miles    
Events      
T = Trace of Precipitation, MM = Missing Value Source: NWS Daily Summary

Daily Weather History Graph

Daily Weather History Graph

Search for Another Location

Airport or City:

Trip Planner

Search our weather history database for the weather conditions in past years. The results will help you decide how hot, cold, wet, or windy it might be!

Date:

Astronomy

Feb. 21, 2012 Rise Set
Actual Time 6:42 AM EST 5:31 PM EST
Civil Twilight 6:13 AM EST 6:00 PM EST
Nautical Twilight 5:40 AM EST 6:33 PM EST
Astronomical Twilight 5:07 AM EST 7:06 PM EST
Moon 6:08 AM EST (2/21) 5:36 PM EST (2/21)
Length of Visible Light 11h 46m
Length of Day
10h 49m
Waning Crescent, 0% of the Moon is Illuminated
Feb 21
Waning Crescent
Feb 21
New
Feb 29
First Quarter
Mar 8
Full
Mar 14
Last Quarter

Hourly Weather History & Observations

Time (EST) Temp. Windchill Dew Point Humidity Pressure Visibility Wind Dir Wind Speed Gust Speed Precip Events Conditions
12:54 AM 19.0 °F - 12.9 °F 77% 30.34 in 10.0 mi Calm Calm - N/A   Clear
1:54 AM 17.1 °F - 12.0 °F 81% 30.36 in 10.0 mi Calm Calm - N/A   Clear
2:54 AM 16.0 °F - 12.0 °F 84% 30.35 in 10.0 mi Calm Calm - N/A   Clear
3:54 AM 16.0 °F - 12.0 °F 84% 30.31 in 10.0 mi Calm Calm - N/A   Clear
4:54 AM 17.1 °F - 12.0 °F 81% 30.31 in 10.0 mi Calm Calm - N/A   Clear
5:54 AM 17.1 °F - 10.9 °F 77% 30.30 in 10.0 mi Calm Calm - N/A   Clear
6:54 AM 16.0 °F - 12.0 °F 84% 30.29 in 10.0 mi Calm Calm - N/A   Clear
7:54 AM 19.9 °F - 15.1 °F 81% 30.29 in 10.0 mi Calm Calm - N/A   Clear
8:54 AM 26.1 °F - 18.0 °F 71% 30.27 in 10.0 mi Calm Calm - N/A   Clear
9:54 AM 34.0 °F - 18.0 °F 52% 30.25 in 10.0 mi Calm Calm - N/A   Clear
10:54 AM 37.0 °F 30.4 °F 14.0 °F 39% 30.21 in 10.0 mi South 9.2 mph - N/A   Clear
12:54 PM 39.9 °F 33.4 °F 12.9 °F 33% 30.10 in 10.0 mi South 10.4 mph 24.2 mph N/A   Clear
1:54 PM 41.0 °F 35.2 °F 12.0 °F 31% 30.06 in 10.0 mi SSE 9.2 mph - N/A   Clear
2:54 PM 41.0 °F 35.2 °F 12.0 °F 31% 30.03 in 10.0 mi South 9.2 mph 20.7 mph N/A   Clear
3:54 PM 39.9 °F 35.8 °F 12.0 °F 32% 29.98 in 10.0 mi South 5.8 mph 17.3 mph N/A   Clear
4:54 PM 39.0 °F 34.0 °F 14.0 °F 36% 29.95 in 10.0 mi SSE 6.9 mph - N/A   Clear
5:54 PM 37.9 °F 32.7 °F 17.1 °F 43% 29.93 in 10.0 mi SSE 6.9 mph - N/A   Partly Cloudy
6:54 PM 37.9 °F 31.5 °F 23.0 °F 55% 29.93 in 10.0 mi South 9.2 mph 20.7 mph N/A   Overcast
8:52 PM 39.2 °F 31.6 °F 28.4 °F 65% 29.84 in 10.0 mi South 12.7 mph 19.6 mph N/A   Overcast
8:54 PM 39.0 °F 31.4 °F 28.0 °F 65% 29.86 in 10.0 mi South 12.7 mph 19.6 mph N/A   Overcast
9:54 PM 39.9 °F 35.1 °F 28.9 °F 65% 29.83 in 10.0 mi Variable 6.9 mph - N/A   Overcast
10:01 PM 39.2 °F 32.0 °F 28.4 °F 65% 29.81 in 10.0 mi South 11.5 mph 20.7 mph N/A   Overcast
10:54 PM 41.0 °F 35.8 °F 28.9 °F 62% 29.82 in 10.0 mi South 8.1 mph 16.1 mph N/A   Overcast
11:54 PM 41.0 °F 33.9 °F 28.0 °F 60% 29.78 in 10.0 mi SSW 12.7 mph 19.6 mph N/A   Overcast